Showing default

GORIZONT 19, 20263

Orbit data source: Space-Track

GORIZONT 19, 20263 is a payload satellite owned by MSvyaz (CIS) in GEO that was launched on Thu, 28 Sep 1989 UTC via a PROTON-K/DM-2 launch vehicle from the Tyuratam Missile And Space Complex (TTMTR). Payloads include a variety of satellites, spacecraft, and rockets equipped with specific instruments for various scientific and technological missions. These include communications satellites like Starlink; space stations such as the ISS; scientific satellites like the Hubble; Earth observation satellites from companies like Planet Labs, Umbra, and HawkEye 360; GPS; miniature CubeSats for education and research; and military/defense satellites.

Not visible in the next 10 days
GORIZONT 19 details
Identifier
20263, 1989-081A
Orbit
GEO
Last TLE update1 day ago
Origin
Flag of CISMSvyaz (CIS)
ManufacturerNPO PM
MissionNon-operational Civil Communications
Bus & MotorGORIZONT, Unknown motor
Mass2,120 kg wet, ~2,000 kg dry
Launch date (UTC)
1989-09-28 (35 years ago)
Launch vehicle
PROTON-K/DM-2
Launch site
Tyuratam Missile And Space Complex (TTMTR)
Object type
Payload
Rocket body
Debris
Shape & HBRCyl + 2 Pan, 9.5 m
Radar Cross Section23.870 m², Large (>1 m²)

Expand to show TLE details & history

TLE from 1 day ago
0 GORIZONT 19
1 20263U 89081A   25034.90915706  .00000040  00000-0  00000-0 0  9994
2 20263  12.6250 336.8965 0005312 258.7901 282.8389  1.00345148 42343
Epoch: 2025-02-03T21:49Z
Definitive object data (Epoch: 2025-02-03T21:49:11.169Z)
Latitude-0.33675°
Longitude56.82785°
Altitude35,760.709 km
Speed3.076 km/s
True Right ascension10h 33m 47s
True Declination0° 20' 11"
Sunlit
Object was in daylight at TLE epoch
Visualization TLE readout
Latitude-8.48179°
Longitude-166.38093°
Altitude35,755.433 km
Speed3.076 km/s
Apparent Right ascension19h 47m 58s
Apparent Declination-12° 29' 44"
Sunlit
Object is in daylight
Visualization observer readout
Local Sidereal Time08:48:21
Azimuth30.09° NE
Elevation-59.519°
Doppler factor1
Orbital elements
Apogee altitude35,789.425 km
Perigee altitude35,744.65 km
Semi-major axis42,145.174 km
Eccentricity0.0005312
Inclination12.625°
RAAN336.8965°
Arg. of periapsis258.7901°
True anomaly282.77954°
Mean anomaly282.8389°
Eccentric anomaly282.80922°
Mean motion0.25085 °/min
BSTARUnknown
Orbital period1435.1 mins
Loading historical data...
20263 neighbors
Authenticating...
Loading maneuver chart data...
Loading historical data...
Loading historical data...
Loading historical data...
Loading historical data...
Loading historical data...
Loading historical data...
Loading historical data...

GORIZONT 19 Visibility forecast

Observer location: undefined°, undefined

GORIZONT 19 is not visible in the next 10 days
Span
Click to sort rows by Start time (UTC) header in descending order
Start Az.
Max El. time (UTC)
Max El. Az.
Max El.
End time (UTC)
End Az.
|